Regional Weather Roundup
Issued by NWS Newport/Morehead, NC

Current Version | Previous Version | Graphics & Text | Print | Product List | Glossary Off
Versions: 1 2 3 4 5 6 7 8 9 10 11 12 13 14 15 16 17 18 19 20 21 22 23 24 25 26 27 28 29 30 31 32 33 34 35 36 37 38 39 40 41 42 43 44 45 46 47 48 49 50

000
ASUS42 KMHX 191614
RWRMHX
WEATHER ROUNDUP FOR EASTERN NORTH CAROLINA
NATIONAL WEATHER SERVICE NEWPORT/MOREHEAD CITY NC
1200 PM EDT TUE SEP 19 2017

NOTE: "FAIR" INDICATES FEW OR NO CLOUDS BELOW 12,000 FEET
WITH NO SIGNIFICANT WEATHER AND/OR OBSTRUCTIONS TO VISIBILITY

NCZ015>017-031-032-045>047-102-103-191700-
NORTH COAST

CITY           SKY/WX    TMP DP  RH WIND       PRES   REMARKS
EDENTON        NOT AVBL
ELIZABETH CITY CLOUDY    73  72  96 NW15      29.87F
KITTY HAWK     NOT AVBL
MANTEO         NOT AVBL

$$

NCZ045>047-081-094-103-104-191700-
CENTRAL COAST

CITY           SKY/WX    TMP DP  RH WIND       PRES   REMARKS
FRISCO         CLOUDY    73  70  90 NW15G24   29.84F

$$

NCZ095-097-098-100-101-191700-
SOUTHERN COAST

CITY           SKY/WX    TMP DP  RH WIND       PRES   REMARKS
BEAUFORT       NOT AVBL
CEDAR ISLAND   NOT AVBL
JACKSONVILLE   MOSUNNY   79  68  69 NW13G20   29.94F
PINEY ISLAND     N/A    N/A N/A N/A NW20G28   29.90S
WILMINGTON     SUNNY     79  67  66 W8        29.97S


$$

NCZ011>013-027>030-043-044-078>080-089-090>093-098-191700-
COASTAL PLAIN

CITY           SKY/WX    TMP DP  RH WIND       PRES   REMARKS
AHOSKIE          N/A     76  67  71 NW7       29.95S
CLINTON        NOT AVBL
ELIZABETHTOWN  NOT AVBL
GOLDSBORO      SUNNY     78  71  80 NW9       29.96F
GREENVILLE     NOT AVBL
HAVELOCK       CLOUDY    78  67  68 NW20      29.93F
KENANSVILLE    NOT AVBL
KINSTON        CLOUDY    79  66  65 NW8       29.97F
NEW BERN       CLOUDY    77  67  71 NW13G22   29.94F
RICHLANDS      MOSUNNY   78  68  71 W9        29.96F
ROCKY MOUNT    MOSUNNY   78  66  66 N10       29.98F
WASHINGTON     MOSUNNY   78  66  68 NW10G20   29.93F
WHITEVILLE     NOT AVBL

$$

AMZ130-135-150-152-154-156-158-170-250-252-270-ANZ085-086-088-633-658-670-191700-
MARINE OBSERVATIONS

STATION/POSITION TIME  TEMP    WIND        PRES    WAVE   SWELL
                       AIR SEA DIR/SP/G            HT/PER HT/PER
                 (UTC) (F)     (DEG/KT/KT) (MB)    (FT/S) (FT/S)
CHESAPEAKE LIGHT NOT AVBL
64 E VA BEACH    1550   71 71  350/ 33/ 41 1005.3   17/11  13/11
DUCK             1536   72 75  330/ 18/ 23 1009.4
2 E DUCK         1600      75                N/A    12/13   8/13
OREGON INLET     1536   71 74  320/ 18/ 26 1009.7
13E OREGON INLT  1548      74                N/A    15/13  15/13
HATTERAS CG      1536   72 76  320/ 23/ 27 1010.7
DIAMOND BUOY     1550   72 75  310/ 23/ 27 1009.5   10/13   7/13
CAPE LOOKOUT     1600   76     320/ 17/ 20 1012.3
BEAUFORT LAB     1536   76 74  330/ 10/ 18 1012.3
30 SE NEW RVR IN 1508   74     340/ 17/ 21 1013.3
30 SE NEW RVR IN NOT AVBL
27 SE WRIGHTSVLE 1508   73 79  320/ 16/ 21 1014.2
5 SE WRIGHTSVLE  1508   72 78  340/ 14/ 21 1014.4
225 S CAPE HAT   1550   80 80  300/ 14/ 17 1012.9    9/10   8/10
41 SE CHARLESTON 1550   77     340/ 10/ 14 1015.4

$$



USA.gov is the U.S. government's official web portal to all federal, state and local government web resources and services.